When you browse on this site, cookies collect data to enhance your experience and personalize the content and advertising you see.
Visit our Privacy Policy to learn more. By continuing to use the site, you agree to this use of cookies and data.
  • In Germany
  • List of Countries
  • For 7 days
  • Water Temperature
  • Weather Map
  • Weather Widgets
  • user-avatar
    Login

    Hourly Weather Monastyrka

    Today, 20 October, Sunday

    Time Temperature Precipitation Wind Pressure Humidity
    00:00 -7°C° 0 mm 1 mps 761 mmHg 86%
    01:00 -7°C° 0 mm 1 mps 761 mmHg 86%
    02:00 -7°C° 0 mm 1 mps 761 mmHg 86%
    03:00 -7°C° 0 mm 1 mps 762 mmHg 87%
    04:00 -7°C° 0 mm 1 mps 762 mmHg 87%
    05:00 -7°C° 0 mm 1 mps 762 mmHg 87%
    06:00 -8°C° 0 mm 2 mps 762 mmHg 88%
    07:00 -8°C° 0 mm 2 mps 762 mmHg 88%
    08:00 -7°C° 0 mm 2 mps 762 mmHg 84%
    09:00 -7°C° 0 mm 3 mps 762 mmHg 79%
    10:00 -5°C° 0 mm 3 mps 762 mmHg 75%
    11:00 -5°C° 0 mm 4 mps 761 mmHg 73%
    12:00 -4°C° 0 mm 4 mps 761 mmHg 71%
    13:00 -3°C° 0 mm 4 mps 761 mmHg 70%
    14:00 -4°C° 0 mm 4 mps 760 mmHg 72%
    15:00 -4°C° 0 mm 4 mps 760 mmHg 74%
    16:00 -5°C° 0 mm 4 mps 760 mmHg 76%
    17:00 -5°C° 0 mm 4 mps 760 mmHg 78%
    18:00 -7°C° 0 mm 4 mps 760 mmHg 81%
    19:00 -7°C° 0 mm 4 mps 760 mmHg 84%
    20:00 -7°C° 0 mm 5 mps 759 mmHg 83%
    21:00 -7°C° 0 mm 5 mps 759 mmHg 83%
    22:00 -7°C° 0 mm 5 mps 759 mmHg 83%
    23:00 -7°C° 0 mm 5 mps 759 mmHg 81%

    Tomorrow, 21 October, Monday

    Time Temperature Precipitation Wind Pressure Humidity
    00:00 -7°C° 0 mm 5 mps 758 mmHg 80%
    01:00 -7°C° 0 mm 5 mps 758 mmHg 79%
    02:00 -6°C° 0 mm 5 mps 758 mmHg 78%
    03:00 -6°C° 0 mm 5 mps 758 mmHg 77%
    04:00 -6°C° 0 mm 5 mps 757 mmHg 77%
    05:00 -6°C° 0 mm 5 mps 757 mmHg 76%
    06:00 -5°C° 0 mm 5 mps 756 mmHg 76%
    07:00 -5°C° 0 mm 5 mps 756 mmHg 76%
    08:00 -5°C° 0.3 mm 5 mps 756 mmHg 79%
    09:00 -4°C° 0.3 mm 5 mps 756 mmHg 81%
    10:00 -2°C° 0.3 mm 5 mps 755 mmHg 84%
    11:00 -2°C° 0.3 mm 5 mps 755 mmHg 86%
    12:00 -2°C° 0.3 mm 5 mps 755 mmHg 87%
    13:00 -2°C° 0.3 mm 5 mps 754 mmHg 89%
    14:00 -1°C° 0.1 mm 5 mps 754 mmHg 89%
    15:00 -1°C° 0.1 mm 5 mps 754 mmHg 89%
    16:00 -1°C° 0.1 mm 5 mps 753 mmHg 90%
    17:00 -1°C° 0 mm 5 mps 753 mmHg 89%
    18:00 -1°C° 0 mm 5 mps 753 mmHg 89%
    19:00 -1°C° 0 mm 4 mps 753 mmHg 89%
    20:00 -1°C° 0 mm 4 mps 752 mmHg 90%
    21:00 -1°C° 0 mm 4 mps 751 mmHg 90%
    22:00 -1°C° 0 mm 4 mps 751 mmHg 91%
    23:00 0°C° 0 mm 4 mps 750 mmHg 91%

    Day after tomorrow, 22 October, Tuesday

    Time Temperature Precipitation Wind Pressure Humidity
    00:00 0°C° 0 mm 5 mps 749 mmHg 91%
    01:00 0°C° 0 mm 5 mps 748 mmHg 92%
    02:00 +1°C° 0 mm 5 mps 748 mmHg 91%
    03:00 +1°C° 0 mm 6 mps 747 mmHg 91%
    04:00 +1°C° 0 mm 6 mps 747 mmHg 90%
    05:00 +1°C° 0.6 mm 6 mps 746 mmHg 91%
    06:00 0°C° 0.6 mm 7 mps 745 mmHg 91%
    07:00 0°C° 0.6 mm 7 mps 744 mmHg 92%
    08:00 +2°C° 0.5 mm 7 mps 743 mmHg 91%
    09:00 +2°C° 0.5 mm 7 mps 743 mmHg 90%
    10:00 +2°C° 0.5 mm 7 mps 743 mmHg 89%
    11:00 +3°C° 0 mm 7 mps 743 mmHg 88%
    12:00 +3°C° 0 mm 6 mps 743 mmHg 87%
    13:00 +4°C° 0 mm 6 mps 743 mmHg 86%
    14:00 +3°C° 0 mm 6 mps 743 mmHg 85%
    15:00 +3°C° 0 mm 5 mps 743 mmHg 84%
    16:00 +2°C° 0 mm 5 mps 743 mmHg 83%
    17:00 +2°C° 0 mm 5 mps 744 mmHg 85%
    18:00 +1°C° 0 mm 5 mps 744 mmHg 86%
    19:00 +1°C° 0 mm 5 mps 745 mmHg 88%
    20:00 +1°C° 0 mm 5 mps 745 mmHg 87%
    21:00 +1°C° 0 mm 4 mps 745 mmHg 87%
    22:00 0°C° 0 mm 4 mps 745 mmHg 87%
    23:00 0°C° 0 mm 4 mps 746 mmHg 88%

    23 October, Wednesday

    Time Temperature Precipitation Wind Pressure Humidity
    00:00 -1°C° 0 mm 4 mps 746 mmHg 88%
    01:00 -1°C° 0 mm 3 mps 746 mmHg 89%
    02:00 -1°C° 0 mm 3 mps 747 mmHg 89%
    03:00 -1°C° 0 mm 3 mps 747 mmHg 89%
    04:00 -1°C° 0 mm 3 mps 748 mmHg 89%
    05:00 -1°C° 0 mm 3 mps 748 mmHg 89%
    06:00 -1°C° 0 mm 3 mps 748 mmHg 90%
    07:00 -1°C° 0 mm 3 mps 749 mmHg 90%
    08:00 -1°C° 0 mm 3 mps 749 mmHg 87%
    09:00 0°C° 0 mm 3 mps 749 mmHg 84%
    10:00 0°C° 0 mm 3 mps 749 mmHg 81%
    11:00 +1°C° 0 mm 3 mps 749 mmHg 79%
    12:00 0°C° 0 mm 4 mps 749 mmHg 76%
    13:00 0°C° 0 mm 4 mps 749 mmHg 74%
    14:00 0°C° 0 mm 3 mps 749 mmHg 77%
    15:00 0°C° 0 mm 3 mps 749 mmHg 80%
    16:00 -1°C° 0 mm 3 mps 749 mmHg 83%
    17:00 -1°C° 0 mm 3 mps 749 mmHg 84%
    18:00 -2°C° 0 mm 3 mps 749 mmHg 86%
    19:00 -2°C° 0 mm 2 mps 749 mmHg 88%
    20:00 -2°C° 0 mm 3 mps 749 mmHg 88%
    21:00 -2°C° 0 mm 3 mps 749 mmHg 87%
    22:00 -2°C° 0 mm 3 mps 748 mmHg 87%
    23:00 -3°C° 0 mm 4 mps 748 mmHg 87%

    24 October, Thursday

    Time Temperature Precipitation Wind Pressure Humidity
    00:00 -3°C° 0 mm 4 mps 748 mmHg 86%
    01:00 -3°C° 0 mm 4 mps 747 mmHg 86%
    02:00 -2°C° 0 mm 4 mps 747 mmHg 85%
    03:00 -1°C° 0 mm 5 mps 746 mmHg 85%
    04:00 -1°C° 0 mm 5 mps 746 mmHg 84%
    05:00 0°C° 0 mm 5 mps 746 mmHg 85%
    06:00 0°C° 0 mm 5 mps 745 mmHg 85%
    07:00 +1°C° 0 mm 5 mps 745 mmHg 86%
    08:00 +2°C° 0 mm 5 mps 745 mmHg 85%
    09:00 +2°C° 0 mm 5 mps 744 mmHg 85%
    10:00 +3°C° 0 mm 5 mps 744 mmHg 85%
    11:00 +5°C° 0 mm 5 mps 744 mmHg 84%
    12:00 +5°C° 0 mm 5 mps 744 mmHg 84%
    13:00 +6°C° 0 mm 5 mps 744 mmHg 83%
    14:00 +6°C° 0 mm 4 mps 744 mmHg 85%
    15:00 +6°C° 0 mm 4 mps 744 mmHg 86%
    16:00 +5°C° 0 mm 3 mps 744 mmHg 88%
    17:00 +5°C° 0 mm 4 mps 744 mmHg 89%
    18:00 +5°C° 0 mm 4 mps 744 mmHg 91%
    19:00 +5°C° 0 mm 4 mps 744 mmHg 92%
    20:00 +5°C° 0 mm 3 mps 744 mmHg 92%
    21:00 +4°C° 0 mm 3 mps 744 mmHg 93%
    22:00 +4°C° 0 mm 3 mps 745 mmHg 93%
    23:00 +4°C° 0 mm 3 mps 745 mmHg 93%

    25 October, Friday

    Time Temperature Precipitation Wind Pressure Humidity
    00:00 +3°C° 0 mm 3 mps 745 mmHg 93%
    01:00 +3°C° 0 mm 3 mps 745 mmHg 93%
    02:00 +3°C° 0 mm 3 mps 745 mmHg 93%
    03:00 +3°C° 0 mm 3 mps 745 mmHg 94%
    04:00 +3°C° 0 mm 3 mps 746 mmHg 94%
    05:00 +3°C° 0 mm 3 mps 746 mmHg 94%
    06:00 +3°C° 0 mm 3 mps 746 mmHg 94%
    07:00 +2°C° 0 mm 3 mps 746 mmHg 93%
    08:00 +4°C° 0 mm 2 mps 746 mmHg 91%
    09:00 +5°C° 0 mm 2 mps 747 mmHg 88%
    10:00 +6°C° 0 mm 2 mps 747 mmHg 85%
    11:00 +7°C° 0 mm 3 mps 747 mmHg 84%
    12:00 +8°C° 0 mm 3 mps 747 mmHg 82%
    13:00 +9°C° 0 mm 3 mps 747 mmHg 80%
    14:00 +9°C° 0 mm 3 mps 746 mmHg 84%
    15:00 +8°C° 0 mm 4 mps 746 mmHg 88%
    16:00 +8°C° 0 mm 4 mps 746 mmHg 93%
    17:00 +8°C° 0 mm 4 mps 746 mmHg 91%
    18:00 +8°C° 0 mm 5 mps 746 mmHg 90%
    19:00 +8°C° 0 mm 5 mps 746 mmHg 89%
    20:00 +8°C° 0 mm 5 mps 746 mmHg 89%
    21:00 +8°C° 0 mm 5 mps 746 mmHg 89%
    22:00 +8°C° 0 mm 5 mps 746 mmHg 89%
    23:00 +7°C° 0 mm 4 mps 746 mmHg 87%
    Show more